Saipan, MP

8:40 PM ChST on December 14, 2017 (GMT +1000)
Saipan International

Weather History for PGSN - December, 2012

Change the Weather History Date:

Saturday, December 8, 2012

  Actual Average Record
Temperature  
Mean Temperature 82 °F -  
Max Temperature 87 °F 83 °F 87 °F (2008)
Min Temperature 77 °F 76 °F 73 °F (2015)
Cooling Degree Days 18    
Growing Degree Days 32 (Base 50)    
Moisture  
Dew Point 72 °F    
Average Humidity 73    
Maximum Humidity 90    
Minimum Humidity 61    
Precipitation  
Precipitation 0.05 in - - ()
Sea Level Pressure  
Sea Level Pressure 29.95 in    
Wind  
Wind Speed 9 mph (ENE)    
Max Wind Speed 16 mph    
Max Gust Speed -    
Visibility 10 miles    
Events Rain    
Averages and records for this station are not official NWS values.
T = Trace of Precipitation, MM = Missing Value Source: NWS Daily Summary

Daily Weather History Graph

Daily Weather History Graph

Search for Another Location

Airport or City:

Trip Planner

Search our weather history database for the weather conditions in past years. The results will help you decide how hot, cold, wet, or windy it might be!

Date:

Astronomy

Dec. 08, 2012 Rise Set
Actual Time 6:31 AM ChST 5:46 PM ChST
Civil Twilight 6:07 AM ChST 6:10 PM ChST
Nautical Twilight 5:41 AM ChST 6:36 PM ChST
Astronomical Twilight 5:14 AM ChST 7:03 PM ChST
Moon 12:59 AM ChST (12/8) 1:13 PM ChST (12/8)
Length of Visible Light 12h 02m
Length of Day
11h 15m
Waning Crescent, 35% of the Moon is Illuminated
Dec 8
Waning Crescent
Dec 13
New
Dec 20
First Quarter
Dec 28
Full
Jan 5
Last Quarter

Hourly Weather History & Observations

Time (ChST) Temp. Heat Index Dew Point Humidity Pressure Visibility Wind Dir Wind Speed Gust Speed Precip Events Conditions
12:54 AM 78.1 °F - 73.0 °F 84% 29.99 in 10.0 mi ENE 4.6 mph - N/A   Overcast
1:54 AM 78.1 °F - 75.0 °F 90% 29.98 in 10.0 mi South 3.5 mph - 0.03 in   Overcast
2:54 AM 80.1 °F 85.1 °F 75.0 °F 85% 29.96 in 10.0 mi NE 3.5 mph - N/A   Overcast
3:54 AM 81.0 °F 86.7 °F 75.0 °F 82% 29.95 in 10.0 mi East 5.8 mph - 0.00 in   Overcast
4:21 AM 80.6 °F 85.4 °F 73.4 °F 79% 29.89 in 10.0 mi East 6.9 mph - N/A   Overcast
4:54 AM 80.1 °F 85.1 °F 75.0 °F 85% 29.96 in 10.0 mi ENE 12.7 mph - 0.02 in   Mostly Cloudy
5:41 AM 80.6 °F 85.4 °F 73.4 °F 79% 29.90 in 10.0 mi NE 12.7 mph - 0.00 in Rain Light Rain
5:54 AM 79.0 °F - 73.0 °F 82% 29.96 in 10.0 mi NE 10.4 mph - 0.00 in   Mostly Cloudy
6:54 AM 81.0 °F 86.2 °F 73.9 °F 79% 29.98 in 10.0 mi East 12.7 mph - N/A   Mostly Cloudy
7:54 AM 82.0 °F 87.4 °F 73.0 °F 74% 30.00 in 10.0 mi East 12.7 mph - N/A   Scattered Clouds
8:54 AM 84.9 °F 92.1 °F 73.9 °F 69% 30.01 in 10.0 mi East 12.7 mph - N/A   Scattered Clouds
9:54 AM 84.9 °F 91.4 °F 73.0 °F 67% 30.00 in 10.0 mi East 12.7 mph - N/A   Partly Cloudy
10:54 AM 86.0 °F 92.2 °F 72.0 °F 63% 29.99 in 10.0 mi East 16.1 mph - N/A   Partly Cloudy
11:54 AM 87.1 °F 93.6 °F 72.0 °F 61% 29.96 in 10.0 mi East 13.8 mph - N/A   Partly Cloudy
12:54 PM 87.1 °F 94.5 °F 73.0 °F 63% 29.92 in 10.0 mi East 12.7 mph - N/A   Mostly Cloudy
1:54 PM 87.1 °F 93.6 °F 72.0 °F 61% 29.90 in 10.0 mi ENE 15.0 mph - N/A   Partly Cloudy
2:54 PM 86.0 °F 91.5 °F 71.1 °F 61% 29.89 in 10.0 mi ENE 15.0 mph - N/A   Scattered Clouds
3:54 PM 84.9 °F 89.4 °F 70.0 °F 61% 29.89 in 10.0 mi ENE 13.8 mph - N/A   Partly Cloudy
4:54 PM 82.9 °F 87.0 °F 70.0 °F 65% 29.91 in 10.0 mi East 10.4 mph - N/A   Scattered Clouds
5:54 PM 81.0 °F 84.4 °F 70.0 °F 69% 29.93 in 10.0 mi East 6.9 mph - N/A   Scattered Clouds
6:54 PM 80.1 °F 83.2 °F 70.0 °F 71% 29.95 in 10.0 mi East 9.2 mph - N/A   Scattered Clouds
7:54 PM 80.1 °F 83.2 °F 70.0 °F 71% 29.96 in 10.0 mi East 10.4 mph - N/A   Partly Cloudy
8:54 PM 80.1 °F 83.6 °F 71.1 °F 74% 29.97 in 10.0 mi East 10.4 mph - N/A   Scattered Clouds
9:54 PM 80.1 °F 83.6 °F 71.1 °F 74% 29.97 in 10.0 mi ENE 8.1 mph - N/A   Scattered Clouds
10:54 PM 79.0 °F - 71.1 °F 77% 29.96 in 10.0 mi ENE 8.1 mph - N/A   Scattered Clouds
11:54 PM 77.0 °F - 70.0 °F 79% 29.95 in 10.0 mi ENE 5.8 mph - N/A   Partly Cloudy